| time (UTC) | temp C | wind direction | speed KPH | gust KPH | rain 1hr cm | rain 24hr cm | rain mn cm | humidity % | barometer mb |
| 20260504194532 | 20 | 180 | 9.7 | 22.5 | 0.00 | 0.00 | 0.00 | 41 | 1011.5 |
| 20260504193035 | 21 | 132 | 8.0 | 20.9 | 0.00 | 0.00 | 0.00 | 40 | 1011.4 |
| 20260504191540 | 21 | 163 | 6.4 | 25.7 | 0.00 | 0.00 | 0.00 | 41 | 1011.5 |
| 20260504190035 | 21 | 299 | 4.8 | 16.1 | 0.00 | 0.00 | 0.00 | 41 | 1011.5 |
| 20260504184534 | 21 | 268 | 8.0 | 22.5 | 0.00 | 0.00 | 0.00 | 38 | 1011.5 |
| 20260504183037 | 21 | 30 | 4.8 | 17.7 | 0.00 | 0.00 | 0.00 | 37 | 1011.9 |
| 20260504181535 | 20 | 268 | 6.4 | 16.1 | 0.00 | 0.00 | 0.00 | 38 | 1012.0 |
| 20260504180036 | 20 | 202 | 4.8 | 19.3 | 0.00 | 0.00 | 0.00 | 39 | 1012.2 |
| 20260504174534 | 20 | 150 | 6.4 | 25.7 | 0.00 | 0.00 | 0.00 | 38 | 1012.4 |
| 20260504173036 | 20 | 66 | 6.4 | 19.3 | 0.00 | 0.00 | 0.00 | 39 | 1012.3 |
| 20260504171536 | 20 | 229 | 4.8 | 16.1 | 0.00 | 0.00 | 0.00 | 41 | 1012.6 |
| 20260504081537 | 6 | 130 | 1.6 | 6.4 | 0.00 | 0.00 | 0.00 | 71 | 1014.3 |
| 20260504044537 | 2 | 164 | 1.6 | 3.2 | 0.00 | 0.00 | 0.00 | 80 | 1014.4 |
| 20260504043039 | 3 | 164 | 1.6 | 3.2 | 0.00 | 0.00 | 0.00 | 79 | 1014.5 |
| 20260504041535 | 3 | 164 | 1.6 | 3.2 | 0.00 | 0.00 | 0.00 | 79 | 1014.4 |
| 20260504040045 | 3 | 164 | 0.0 | 3.2 | 0.00 | 0.00 | 0.00 | 78 | 1014.3 |
| 20260504034542 | 3 | 164 | 1.6 | 6.4 | 0.00 | 0.00 | 0.00 | 78 | 1014.2 |
| 20260504033038 | 3 | 164 | 1.6 | 3.2 | 0.00 | 0.00 | 0.00 | 78 | 1014.0 |
| 20260504031543 | 3 | 164 | 1.6 | 6.4 | 0.00 | 0.00 | 0.00 | 77 | 1014.1 |
| 20260504030037 | 3 | 0 | 0.0 | 0.0 | 0.00 | 0.00 | 0.00 | 77 | 1014.2 |
| 20260504024542 | 3 | 0 | 0.0 | 3.2 | 0.00 | 0.00 | 0.00 | 75 | 1014.0 |
| 20260504023037 | 4 | 141 | 1.6 | 3.2 | 0.00 | 0.00 | 0.00 | 75 | 1013.9 |
| 20260504021533 | 4 | 0 | 0.0 | 0.0 | 0.00 | 0.00 | 0.00 | 72 | 1013.8 |
| 20260504020034 | 5 | 0 | 0.0 | 0.0 | 0.00 | 0.00 | 0.00 | 72 | 1013.7 |
| 20260504014533 | 5 | 0 | 0.0 | 0.0 | 0.00 | 0.00 | 0.00 | 70 | 1013.6 |
| 20260504013038 | 6 | 0 | 0.0 | 0.0 | 0.00 | 0.00 | 0.00 | 68 | 1013.6 |
| 20260504011535 | 6 | 0 | 0.0 | 0.0 | 0.00 | 0.00 | 0.00 | 68 | 1013.4 |
| 20260504010036 | 6 | 0 | 0.0 | 0.0 | 0.00 | 0.00 | 0.00 | 65 | 1013.3 |
| 20260504004536 | 7 | 0 | 0.0 | 0.0 | 0.00 | 0.00 | 0.00 | 61 | 1013.0 |
| 20260504003043 | 7 | 0 | 0.0 | 3.2 | 0.00 | 0.00 | 0.00 | 58 | 1012.8 |
| 20260504001540 | 8 | 0 | 0.0 | 0.0 | 0.00 | 0.00 | 0.00 | 51 | 1012.6 |
| 20260504000057 | 10 | 0 | 0.0 | 0.0 | 0.00 | 0.00 | 0.00 | 46 | 1012.5 |
| 20260503234540 | 10 | 0 | 0.0 | 4.8 | 0.00 | 0.00 | 0.00 | 42 | 1012.4 |
| 20260503233032 | 11 | 292 | 1.6 | 16.1 | 0.00 | 0.00 | 0.00 | 42 | 1012.3 |
| 20260503231534 | 11 | 264 | 1.6 | 11.3 | 0.00 | 0.00 | 0.00 | 42 | 1012.2 |
| 20260503230038 | 11 | 302 | 3.2 | 14.5 | 0.00 | 0.00 | 0.00 | 40 | 1012.0 |
| 20260503224536 | 11 | 302 | 4.8 | 16.1 | 0.00 | 0.00 | 0.00 | 41 | 1012.1 |
| 20260503223040 | 11 | 348 | 8.0 | 17.7 | 0.00 | 0.00 | 0.00 | 41 | 1011.9 |
| 20260503221548 | 12 | 316 | 6.4 | 17.7 | 0.00 | 0.00 | 0.00 | 44 | 1011.8 |
| 20260503220038 | 12 | 330 | 6.4 | 27.4 | 0.00 | 0.00 | 0.00 | 43 | 1012.0 |
| 20260503214533 | 12 | 360 | 6.4 | 22.5 | 0.00 | 0.00 | 0.00 | 45 | 1011.9 |
| 20260503213037 | 12 | 360 | 8.0 | 22.5 | 0.00 | 0.00 | 0.00 | 43 | 1011.8 |
| 20260503211539 | 12 | 33 | 8.0 | 19.3 | 0.00 | 0.00 | 0.00 | 44 | 1011.9 |
| 20260503210037 | 11 | 306 | 11.3 | 24.1 | 0.00 | 0.00 | 0.00 | 40 | 1011.8 |
| 20260503204537 | 11 | 348 | 9.7 | 33.8 | 0.00 | 0.00 | 0.00 | 46 | 1011.7 |
| 20260503203056 | 12 | 336 | 6.4 | 32.2 | 0.00 | 0.00 | 0.00 | 42 | 1011.5 |
| 20260503201538 | 11 | 340 | 8.0 | 29.0 | 0.00 | 0.00 | 0.00 | 44 | 1011.5 |
| 20260503200037 | 11 | 292 | 9.7 | 30.6 | 0.00 | 0.00 | 0.00 | 43 | 1011.5 |